Allentown, PA

12:53 PM EST on December 12, 2019 (GMT -0500)
Lehigh Valley International

Weather History for KABE - November, 2019

Change the Weather History Date:

Friday, November 15, 2019

  Actual Average Record
Temperature  
Mean Temperature 38 °F 43 °F  
Max Temperature 53 °F 53 °F 77 °F (1993)
Min Temperature 23 °F 33 °F 18 °F (1986)
Degree Days  
Heating Degree Days 27 22  
Month to date heating degree days 374 296  
Since 1 July heating degree days 623 807  
Cooling Degree Days 0 0  
Month to date cooling degree days 0 0  
Year to date cooling degree days 1176 757  
Moisture  
Dew Point 22 °F    
Average Humidity 55    
Maximum Humidity 81    
Minimum Humidity 30    
Precipitation  
Precipitation 0.00 in 0.11 in 1.88 in (2007)
Month to date precipitation 0.53 1.61  
Year to date precipitation 56.12 39.88  
Snow  
Snow 0.00 in 0.00 in 7.40 in (2018)
Month to date snowfall T 0.1  
Since 1 July snowfall T 0.1  
Since 1 September snowfall T 0.1  
Snow Depth 0.00 in    
Sea Level Pressure  
Sea Level Pressure 30.23 in    
Wind  
Wind Speed 4 mph ()    
Max Wind Speed 18 mph    
Max Gust Speed 24 mph    
Visibility 9.7 miles    
Events      
T = Trace of Precipitation, MM = Missing Value Source: Averaged Metar Reports

Daily Weather History Graph

Daily Weather History Graph

Search for Another Location

Airport or City:

Astronomy

Nov. 15, 2019 Rise Set
Actual Time 6:48 AM EST 4:44 PM EST
Civil Twilight 6:18 AM EST 5:13 PM EST
Nautical Twilight 5:45 AM EST 5:46 PM EST
Astronomical Twilight 5:13 AM EST 6:18 PM EST
Moon 7:16 PM EST (11/15) 9:42 AM EST (11/15)
Length of Visible Light 10h 54m
Length of Day
9h 55m
Waning Gibbous, 90% of the Moon is Illuminated
Nov 15
Waning Gibbous
Nov 19
Last Quarter
Nov 26
New
Dec 4
First Quarter
Dec 12
Full

Hourly Weather History & Observations

Time (EST) Temp. Windchill Dew Point Humidity Pressure Visibility Wind Dir Wind Speed Gust Speed Precip Events Conditions
12:51 AM 28.0 °F - 21.0 °F 75% 30.28 in 10.0 mi Calm Calm - N/A   Clear
1:51 AM 28.0 °F - 21.0 °F 75% 30.27 in 10.0 mi Calm Calm - N/A   Clear
2:51 AM 27.0 °F - 21.0 °F 78% 30.26 in 10.0 mi Calm Calm - N/A   Clear
3:51 AM 26.1 °F - 21.0 °F 81% 30.26 in 9.0 mi Calm Calm - N/A   Clear
5:51 AM 26.1 °F - 19.9 °F 78% 30.26 in 7.0 mi Calm Calm - N/A   Clear
6:51 AM 24.1 °F 19.7 °F 19.0 °F 81% 30.27 in 9.0 mi WNW 3.5 mph - N/A   Clear
7:51 AM 26.1 °F 21.9 °F 19.9 °F 78% 30.28 in 8.0 mi West 3.5 mph - N/A   Clear
8:51 AM 32.0 °F - 24.1 °F 73% 30.27 in 10.0 mi Calm Calm - N/A   Clear
9:51 AM 39.0 °F 32.8 °F 24.1 °F 55% 30.26 in 10.0 mi SW 9.2 mph - N/A   Unknown
10:51 AM 45.0 °F 39.3 °F 24.1 °F 44% 30.24 in 10.0 mi WSW 11.5 mph - N/A   Clear
11:51 AM 48.9 °F - 23.0 °F 36% 30.21 in 10.0 mi West 9.2 mph - N/A   Clear
12:51 PM 51.1 °F - 23.0 °F 33% 30.17 in 10.0 mi WSW 9.2 mph 17.3 mph N/A   Clear
1:51 PM 52.0 °F - 21.9 °F 31% 30.16 in 10.0 mi WSW 11.5 mph - N/A   Clear
2:51 PM 52.0 °F - 21.0 °F 30% 30.16 in 10.0 mi West 9.2 mph - N/A   Clear
3:51 PM 50.0 °F - 21.0 °F 32% 30.17 in 10.0 mi WSW 8.1 mph - N/A   Clear
4:51 PM 45.0 °F 41.8 °F 21.0 °F 39% 30.17 in 10.0 mi West 5.8 mph - N/A   Clear
5:51 PM 44.1 °F 40.8 °F 19.9 °F 38% 30.18 in 10.0 mi West 5.8 mph - N/A   Clear
6:51 PM 43.0 °F 38.8 °F 21.0 °F 42% 30.19 in 10.0 mi WNW 6.9 mph - N/A   Clear
7:51 PM 41.0 °F 36.4 °F 21.0 °F 45% 30.21 in 10.0 mi WNW 6.9 mph - N/A   Clear
8:51 PM 36.0 °F 28.5 °F 23.0 °F 59% 30.25 in 10.0 mi NNW 10.4 mph - N/A   Clear
9:51 PM 39.0 °F 32.3 °F 27.0 °F 62% 30.27 in 10.0 mi NNW 10.4 mph - N/A   Clear
10:51 PM 39.9 °F 34.5 °F 27.0 °F 60% 30.27 in 10.0 mi North 8.1 mph - N/A   Mostly Cloudy
11:51 PM 39.9 °F 30.8 °F 23.0 °F 51% 30.27 in 10.0 mi North 18.4 mph 23.0 mph N/A   Clear